Location: Newark
(50.2306°N, 14.0814°E)
Time: 23:57:05
(UTC+00:00)

N. Korean satellite - Pass Details

Date: 13 December 2019
Orbit: 454 x 507 km, 97.2° (Epoch: 21 January)

Event Time Altitude Azimuth Distance (km) Brightness Sun altitude
Rises 15:55:06 0° 165° (SSE) 2,599 10.4 -8.2°
Reaches altitude 10° 15:57:11 10° 165° (SSE) 1,716 9.5 -8.5°
Maximum altitude 16:00:54 89° 79° (E) 510 6.6 -9.1°
Drops below altitude 10° 16:04:35 10° 347° (NNW) 1,710 9.2 -9.6°
Sets 16:06:40 0° 348° (NNW) 2,590 10.1 -9.9°
